TimeCST,TemperatureF,Dew PointF,Humidity,Sea Level PressureIn,VisibilityMPH,Wind Direction,Wind SpeedMPH,Gust SpeedMPH,PrecipitationIn,Events,Conditions,WindDirDegrees,DateUTC
12:30 AM,55.4,51.8,88,29.87,5.0,WSW,6.9,-,N/A,,Overcast,240,2012-12-08 06:30:00
12:53 AM,55.0,52.0,89,29.86,5.0,WSW,5.8,-,N/A,,Overcast,240,2012-12-08 06:53:00
1:53 AM,54.0,52.0,93,29.86,4.0,West,3.5,-,N/A,,Overcast,280,2012-12-08 07:53:00
2:14 AM,53.6,51.8,94,29.87,4.0,NW,3.5,-,N/A,,Overcast,310,2012-12-08 08:14:00
2:53 AM,51.1,48.9,92,29.86,2.5,Calm,Calm,-,N/A,,Mostly Cloudy,0,2012-12-08 08:53:00
3:05 AM,51.8,50.0,94,29.87,3.0,Calm,Calm,-,N/A,,Mostly Cloudy,0,2012-12-08 09:05:00
3:28 AM,51.8,50.0,94,29.87,5.0,Calm,Calm,-,N/A,,Overcast,0,2012-12-08 09:28:00
3:41 AM,51.8,50.0,94,29.88,6.0,Calm,Calm,-,N/A,,Overcast,0,2012-12-08 09:41:00
3:53 AM,53.1,50.0,89,29.87,5.0,Calm,Calm,-,N/A,,Overcast,0,2012-12-08 09:53:00
4:53 AM,52.0,48.0,86,29.88,7.0,North,4.6,-,N/A,,Overcast,10,2012-12-08 10:53:00
5:06 AM,51.8,48.2,88,29.89,7.0,North,6.9,-,N/A,,Overcast,10,2012-12-08 11:06:00
5:53 AM,50.0,46.0,86,29.90,5.0,North,8.1,-,N/A,,Overcast,10,2012-12-08 11:53:00
6:18 AM,50.0,46.4,87,29.92,5.0,North,3.5,-,N/A,,Overcast,360,2012-12-08 12:18:00
6:53 AM,50.0,46.0,86,29.91,5.0,NNE,3.5,-,N/A,,Overcast,20,2012-12-08 12:53:00
7:06 AM,50.0,46.4,87,29.93,4.0,Calm,Calm,-,N/A,,Overcast,0,2012-12-08 13:06:00
7:15 AM,48.2,46.4,93,29.93,4.0,Calm,Calm,-,N/A,,Overcast,0,2012-12-08 13:15:00
7:33 AM,48.2,44.6,87,29.93,4.0,North,4.6,-,N/A,,Mostly Cloudy,10,2012-12-08 13:33:00
7:53 AM,50.0,46.0,86,29.92,4.0,NNE,4.6,-,N/A,,Mostly Cloudy,20,2012-12-08 13:53:00
8:35 AM,50.0,44.6,82,29.94,6.0,North,9.2,-,N/A,,Haze,10,2012-12-08 14:35:00
8:53 AM,48.9,45.0,86,29.94,6.0,NE,12.7,-,N/A,,Overcast,40,2012-12-08 14:53:00
9:53 AM,48.9,45.0,86,29.96,7.0,ENE,6.9,-,N/A,,Overcast,60,2012-12-08 15:53:00
10:53 AM,50.0,45.0,83,29.95,9.0,ENE,6.9,-,N/A,,Overcast,60,2012-12-08 16:53:00
11:53 AM,50.0,45.0,83,29.93,9.0,East,5.8,-,N/A,,Overcast,90,2012-12-08 17:53:00
12:23 PM,51.8,44.6,76,29.92,10.0,East,5.8,-,N/A,,Overcast,100,2012-12-08 18:23:00
12:53 PM,50.0,45.0,83,29.92,9.0,NE,5.8,-,N/A,,Overcast,50,2012-12-08 18:53:00
1:53 PM,50.0,45.0,83,29.91,9.0,East,3.5,-,N/A,,Overcast,90,2012-12-08 19:53:00
2:53 PM,51.1,46.0,83,29.89,10.0,ENE,8.1,-,N/A,,Overcast,60,2012-12-08 20:53:00
3:28 PM,51.8,46.4,82,29.90,10.0,East,5.8,-,N/A,,Overcast,80,2012-12-08 21:28:00
3:37 PM,51.8,46.4,82,29.89,10.0,East,5.8,-,N/A,,Overcast,90,2012-12-08 21:37:00
3:53 PM,51.1,46.0,83,29.88,10.0,ENE,6.9,-,N/A,,Overcast,70,2012-12-08 21:53:00
4:06 PM,51.8,46.4,82,29.89,10.0,ENE,4.6,-,N/A,,Overcast,70,2012-12-08 22:06:00
4:53 PM,50.0,45.0,83,29.89,9.0,ENE,6.9,-,N/A,,Overcast,60,2012-12-08 22:53:00
6:49 PM,50.0,44.6,82,29.90,10.0,East,8.1,-,N/A,,Overcast,80,2012-12-09 00:49:00
6:53 PM,50.0,45.0,83,29.90,10.0,East,6.9,-,N/A,,Overcast,80,2012-12-09 00:53:00
7:12 PM,50.0,46.4,87,29.90,10.0,East,9.2,-,N/A,,Overcast,90,2012-12-09 01:12:00
7:20 PM,50.0,46.4,87,29.90,10.0,East,8.1,-,N/A,,Overcast,80,2012-12-09 01:20:00
7:53 PM,50.0,46.0,86,29.89,9.0,East,6.9,-,N/A,,Overcast,90,2012-12-09 01:53:00
8:39 PM,50.0,46.4,87,29.89,8.0,East,8.1,-,N/A,,Overcast,100,2012-12-09 02:39:00
9:53 PM,50.0,46.0,86,29.88,6.0,East,9.2,-,N/A,,Overcast,100,2012-12-09 03:53:00
10:53 PM,48.9,46.0,90,29.88,5.0,ESE,9.2,-,N/A,,Overcast,110,2012-12-09 04:53:00
11:53 PM,48.0,46.9,96,29.86,4.0,ESE,6.9,-,0.00,,Overcast,110,2012-12-09 05:53:00